EA3RCF Weather Reports


time (UTC)temp
C
wind
direction
speed
KPH
gust
KPH
rain 1hr
cm
rain 24hr
cm
rain mn
cm
humidity
%
barometer
mb
20260510063832 11 19 0.0 1.6 0.00 10.11 0.10 94 1011.6
20260510063315 11 70 0.0 3.2 0.00 10.11 0.10 94 1011.4
20260510062815 11 300 0.0 3.2 0.00 10.11 0.10 94 1011.5
20260510062324 11 235 0.0 1.6 0.00 10.11 0.10 94 1011.4
20260510061826 10 235 0.0 1.6 0.00 10.11 0.10 94 1011.5
20260510061334 10 235 0.0 1.6 0.00 10.11 0.10 95 1011.5
20260510060814 10 235 0.0 4.8 0.00 10.11 0.10 95 1011.5
20260510060316 10 235 1.6 4.8 0.00 10.11 0.10 94 1011.4
20260510055825 10 245 0.0 0.0 0.00 10.11 0.10 95 1011.4
20260510055327 10 91 0.0 0.0 0.00 10.11 0.10 95 1011.5
20260510054836 10 91 0.0 0.0 0.00 10.11 0.10 94 1011.5
20260510054324 10 87 0.0 0.0 0.00 10.11 0.10 95 1011.5
20260510053824 10 87 0.0 0.0 0.00 10.11 0.10 94 1011.5
20260510053332 10 88 0.0 0.0 0.10 10.11 0.10 94 1011.5
20260510052821 10 87 0.0 0.0 0.10 10.11 0.10 95 1011.4
20260510052321 10 249 0.0 0.0 0.10 10.11 0.10 94 1011.5
20260510051830 9 249 0.0 0.0 0.10 10.11 0.10 95 1011.3
20260510051316 9 249 0.0 0.0 0.10 10.11 0.10 94 1011.4
20260510050816 9 291 0.0 0.0 0.10 10.11 0.10 95 1011.3
20260510050324 8 291 0.0 0.0 0.10 10.11 0.10 95 1011.3
20260510045821 8 249 0.0 0.0 0.10 10.11 0.10 95 1011.2
20260510045324 8 82 0.0 0.0 0.10 10.11 0.10 95 1011.2
20260510044825 8 242 0.0 0.0 0.10 10.11 0.10 95 1011.2
20260510044334 8 242 0.0 3.2 0.10 10.11 0.10 95 1011.2
20260510043817 8 257 1.6 3.2 0.10 10.11 0.10 95 1011.2
20260510043319 8 263 0.0 3.2 0.00 10.01 0.08 95 1011.2
20260510042828 8 284 0.0 3.2 0.00 10.01 0.08 95 1011.3
20260510042325 8 284 0.0 3.2 0.00 10.01 0.08 95 1011.3
20260510041835 8 283 1.6 3.2 0.00 10.01 0.08 95 1011.3
20260510041315 8 255 1.6 3.2 0.00 10.01 0.08 95 1011.1
20260510040817 8 255 1.6 1.6 0.00 10.01 0.08 95 1011.2
20260510040326 8 255 0.0 0.0 0.00 10.01 0.08 95 1011.2
20260510035824 8 255 0.0 3.2 0.00 10.01 0.08 95 1011.2
20260510035327 8 255 1.6 4.8 0.00 10.01 0.08 95 1011.3
20260510034816 9 282 3.2 4.8 0.00 10.01 0.08 95 1011.2
20260510034317 9 249 1.6 3.2 0.00 10.01 0.08 95 1011.3
20260510033828 9 232 0.0 0.0 0.00 10.01 0.08 95 1011.2
20260510033316 9 232 0.0 1.6 0.00 10.01 0.08 95 1011.3
20260510032817 9 81 0.0 4.8 0.00 10.01 0.08 95 1011.3
20260510032320 9 81 1.6 6.4 0.00 10.01 0.08 95 1011.4
20260510031829 10 118 4.8 6.4 0.00 10.01 0.08 95 1011.4
20260510030815 9 223 0.0 3.2 0.00 10.01 0.08 95 1011.6
20260510030324 9 67 1.6 3.2 0.00 10.01 0.08 95 1011.6
20260510025825 9 98 3.2 4.8 0.00 10.01 0.08 94 1011.6
20260510025334 9 107 3.2 4.8 0.00 10.01 0.08 94 1011.7
20260510024814 9 60 3.2 4.8 0.00 10.01 0.08 94 1011.8
20260510024317 9 271 1.6 3.2 0.00 10.01 0.08 94 1011.9
20260510023825 9 255 0.0 4.8 0.00 10.01 0.08 94 1011.9
20260510023327 9 280 3.2 4.8 0.00 10.01 0.08 94 1011.9
20260510022836 9 252 1.6 3.2 0.00 10.01 0.08 94 1011.8
20260510022318 10 248 1.6 3.2 0.00 10.01 0.08 94 1011.8
20260510021820 10 343 0.0 3.2 0.00 10.01 0.08 94 1011.7
20260510021334 10 342 0.0 3.2 0.00 10.01 0.08 94 1011.7
20260510020815 10 58 0.0 0.0 0.00 10.01 0.08 94 1011.6
20260510020336 10 321 0.0 0.0 0.00 10.01 0.08 94 1011.7
20260510015817 10 291 0.0 0.0 0.00 10.01 0.08 94 1011.7
20260510015319 10 218 0.0 0.0 0.00 10.01 0.08 94 1011.6
20260510014828 10 218 0.0 0.0 0.00 10.01 0.08 94 1011.6
20260510013819 10 218 0.0 0.0 0.00 10.01 0.08 94 1011.9
20260510013328 10 218 0.0 0.0 0.00 10.01 0.08 94 1011.9
20260510012830 10 218 0.0 1.6 0.00 10.01 0.08 94 1012.0
20260510012339 10 218 0.0 1.6 0.00 10.01 0.08 94 1011.9
20260510011821 10 101 1.6 1.6 0.00 10.01 0.08 94 1012.1
20260510011323 10 97 0.0 1.6 0.00 10.01 0.08 94 1012.2
20260510010839 10 98 1.6 1.6 0.00 10.01 0.08 94 1012.2
20260510010321 10 229 0.0 1.6 0.00 10.01 0.08 94 1012.4
20260510005823 10 229 0.0 1.6 0.00 10.01 0.08 94 1012.3
20260510005332 10 230 0.0 1.6 0.00 10.01 0.08 94 1012.4
20260510004814 10 229 1.6 3.2 0.00 10.01 0.08 94 1012.3
20260510004316 10 229 0.0 1.6 0.00 10.01 0.08 94 1012.5
20260510003825 10 226 0.0 0.0 0.00 10.01 0.08 94 1012.6
20260510003327 10 235 0.0 0.0 0.00 10.01 0.08 94 1012.8
20260510002836 10 251 0.0 0.0 0.00 10.01 0.08 94 1012.9
20260510002319 10 251 0.0 0.0 0.00 10.01 0.08 94 1012.9
20260510001824 10 251 0.0 0.0 0.00 10.01 0.08 94 1013.0
20260510001329 10 252 0.0 0.0 0.00 10.01 0.08 94 1013.0
20260510000831 10 252 0.0 0.0 0.00 10.01 0.08 94 1013.1
20260510000313 10 252 0.0 0.0 0.00 10.01 0.08 94 1013.1
20260509235822 10 252 0.0 0.0 0.00 10.01 0.08 94 1013.2
20260509235324 10 251 0.0 0.0 0.10 10.01 0.08 94 1013.3
20260509234832 11 251 0.0 0.0 0.10 10.01 0.08 94 1013.4
20260509234314 11 190 0.0 1.6 0.10 10.01 0.08 94 1013.6
20260509233815 11 158 0.0 3.2 0.10 10.01 0.08 94 1013.5
20260509233324 11 139 1.6 3.2 0.10 10.01 0.08 94 1013.6
20260509232826 11 226 1.6 4.8 0.10 10.01 0.08 94 1013.8
20260509232315 11 212 1.6 1.6 0.20 10.01 0.08 94 1013.9
20260509231825 11 235 0.0 0.0 0.20 10.01 0.08 94 1014.0
20260509231326 11 235 0.0 0.0 0.30 10.01 0.08 95 1014.0
20260509230835 11 235 0.0 0.0 0.30 10.01 0.08 94 1014.1
20260509230322 11 255 0.0 0.0 0.41 10.01 0.08 94 1014.2
20260509225824 11 255 0.0 0.0 0.41 10.01 0.08 94 1014.2
20260509224822 11 255 0.0 0.0 0.41 9.91 0.05 94 1014.2
20260509224324 11 255 0.0 0.0 0.41 9.91 0.05 94 1014.3
20260509223832 11 255 0.0 1.6 0.41 9.91 0.05 94 1014.4
20260509223315 11 255 0.0 1.6 0.41 9.91 0.05 94 1014.4
20260509222815 11 255 0.0 1.6 0.30 9.80 0.05 94 1014.3
20260509222324 11 255 0.0 0.0 0.30 9.80 0.05 94 1014.4
20260509221825 11 255 0.0 1.6 0.30 9.80 0.05 94 1014.3
20260509221334 11 255 0.0 1.6 0.20 9.70 0.03 94 1014.2
20260509220832 11 210 0.0 0.0 0.20 9.70 0.03 94 1014.2
20260509220315 11 210 0.0 0.0 0.20 9.60 0.00 94 1014.2
20260509215817 11 276 0.0 0.0 0.20 9.60 1.93 94 1014.1
20260509215320 11 276 0.0 0.0 0.20 9.60 1.93 94 1014.1
20260509214827 11 280 0.0 0.0 0.10 9.50 1.91 94 1014.1
20260509214330 11 297 0.0 0.0 0.10 9.50 1.91 94 1014.0
20260509213832 11 298 0.0 0.0 0.10 9.50 1.91 94 1014.0
20260509213321 11 298 0.0 0.0 0.10 9.50 1.91 94 1014.0
20260509212824 11 297 0.0 0.0 0.20 9.50 1.91 94 1013.9
20260509212334 11 297 0.0 0.0 0.20 9.50 1.91 94 1013.9
20260509211816 11 300 0.0 0.0 0.20 9.50 1.91 94 1013.9
20260509211324 11 300 0.0 0.0 0.20 9.50 1.91 94 1013.9
20260509210833 11 300 0.0 0.0 0.30 9.50 1.91 94 1013.8
20260509210316 11 299 0.0 0.0 0.20 9.40 1.88 94 1013.7
20260509205817 11 300 0.0 0.0 0.20 9.40 1.88 94 1013.8
20260509205325 11 249 0.0 0.0 0.30 9.40 1.88 94 1013.8
20260509204827 11 249 0.0 0.0 0.30 9.40 1.88 94 1013.7
20260509204329 11 249 0.0 1.6 0.41 9.40 1.88 94 1013.6
20260509203818 11 249 0.0 1.6 0.41 9.40 1.88 94 1013.5
20260509203321 11 249 0.0 3.2 0.41 9.40 1.88 94 1013.4
20260509202817 11 235 1.6 3.2 0.41 9.30 1.85 94 1013.3
20260509202327 11 269 1.6 3.2 0.41 9.30 1.85 94 1013.2
20260509201829 11 274 1.6 3.2 0.41 9.30 1.85 94 1013.0
20260509201318 11 255 1.6 3.2 0.41 9.30 1.85 94 1013.1
20260509200819 11 231 1.6 3.2 0.30 9.19 1.83 94 1013.1
20260509200321 11 231 0.0 1.6 0.41 9.19 1.83 94 1013.0
20260509195824 11 231 0.0 1.6 0.41 9.19 1.83 94 1013.0
20260509195327 11 217 0.0 1.6 0.41 9.09 1.83 94 1012.9
20260509194836 11 226 0.0 1.6 0.41 9.09 1.83 94 1012.9
20260509194317 11 214 0.0 0.0 0.41 8.99 1.80 94 1012.6
20260509193820 11 214 0.0 0.0 0.51 8.99 1.80 94 1012.5
20260509193329 11 214 0.0 0.0 0.61 8.99 1.80 94 1012.4
20260509192341 11 101 0.0 3.2 0.71 8.89 1.78 94 1012.2
20260509191823 11 58 0.0 4.8 0.89 8.89 1.78 94 1012.0
20260509191325 11 91 1.6 9.7 1.30 8.89 1.78 94 1011.9
20260509190330 11 82 4.8 9.7 2.11 8.79 1.75 94 1011.7
20260509185831 11 22 6.4 9.7 2.49 8.79 1.75 94 1011.8
20260509185340 11 40 4.8 8.0 2.49 8.71 1.75 94 1011.8
20260509184822 11 56 4.8 9.7 2.69 8.71 1.75 94 1011.9
20260509184323 11 56 4.8 9.7 2.79 8.61 1.73 94 1011.9
20260509183831 12 61 4.8 8.0 2.79 8.51 1.70 94 1011.9
20260509183333 12 39 3.2 9.7 2.79 8.41 1.68 94 1012.0
20260509182816 12 33 1.6 9.7 2.79 8.31 1.65 94 1012.2
20260509182325 12 97 0.0 4.8 2.90 8.20 1.65 94 1012.4
20260509181827 12 84 1.6 4.8 2.90 8.00 1.60 94 1012.5
20260509181336 12 44 1.6 3.2 2.69 7.49 1.50 94 1012.7
20260509180327 12 32 0.0 1.6 2.79 6.60 1.32 94 1012.8
20260509175835 12 342 0.0 0.0 3.51 6.30 1.27 94 1012.7
20260509175319 12 301 0.0 0.0 4.60 6.20 1.24 94 1012.9
20260509174820 12 301 0.0 0.0 4.80 5.99 1.19 94 1012.8
20260509174320 12 301 0.0 1.6 5.00 5.79 1.17 94 1012.9
20260509173821 12 301 0.0 1.6 5.21 5.69 1.14 94 1013.0
20260509173324 12 301 0.0 1.6 5.21 5.59 1.12 94 1013.0
20260509172832 12 301 0.0 4.8 5.21 5.51 1.09 94 1013.0
20260509172315 12 301 1.6 4.8 5.11 5.31 1.07 94 1013.1
20260509171841 12 330 1.6 4.8 4.80 5.00 0.99 94 1013.1
20260509171322 12 23 0.0 4.8 4.70 4.80 0.97 94 1013.2
20260509170824 13 79 0.0 6.4 4.39 4.50 0.89 94 1013.2
20260509170332 13 49 3.2 6.4 3.51 3.61 0.71 94 1013.4
20260509165815 13 156 0.0 3.2 2.49 2.59 0.51 94 1013.4
20260509165316 13 242 0.0 4.8 1.50 1.60 0.33 94 1013.4
20260509164825 13 239 0.0 4.8 1.19 1.19 0.23 94 1013.3
20260509164327 13 260 1.6 4.8 0.79 0.79 0.15 94 1013.2
20260509163836 13 226 1.6 4.8 0.51 0.51 0.10 94 1013.1
20260509163319 13 262 1.6 6.4 0.30 0.30 0.05 94 1013.0
20260509162819 13 250 3.2 4.8 0.20 0.20 0.05 94 1012.9
20260509162415 13 262 3.2 4.8 0.20 0.20 0.05 94 1012.7
20260509161832 13 288 0.0 1.6 0.10 0.10 0.03 94 1012.7
20260509161314 13 351 0.0 1.6 0.10 0.10 0.03 94 1012.4
20260509160822 13 351 0.0 1.6 0.10 0.10 0.03 94 1012.3
20260509160324 14 336 0.0 1.6 0.10 0.10 0.03 93 1012.2
20260509155826 14 68 0.0 3.2 0.10 0.10 0.03 88 1012.1
20260509155316 14 72 1.6 4.8 0.10 0.10 0.03 86 1012.0
20260509154834 14 98 3.2 6.4 0.00 0.00 0.00 85 1012.2
20260509154323 15 78 4.8 6.4 0.00 0.00 0.00 84 1012.2
20260509153824 15 60 4.8 4.8 0.00 0.00 0.00 83 1012.2
20260509153326 15 85 3.2 6.4 0.00 0.00 0.00 82 1012.2
20260509152816 15 89 3.2 4.8 0.00 0.00 0.00 82 1012.2
20260509152317 15 131 1.6 4.8 0.00 0.00 0.00 82 1012.3
20260509151820 15 121 1.6 6.4 0.00 0.00 0.00 82 1012.3
20260509151329 15 79 3.2 9.7 0.00 0.00 0.00 82 1012.5
20260509150831 15 79 4.8 12.9 0.00 0.00 0.00 82 1012.8
20260509150340 15 114 9.7 14.5 0.00 0.00 0.00 82 1013.0
20260509145822 15 116 8.0 9.7 0.00 0.00 0.00 81 1013.1
20260509145324 15 113 4.8 9.7 0.00 0.00 0.00 81 1013.2
20260509144833 15 82 3.2 4.8 0.00 0.00 0.00 82 1013.0
20260509144315 15 97 0.0 4.8 0.00 0.00 0.00 81 1013.1
20260509143815 15 91 1.6 6.4 0.00 0.00 0.00 81 1013.2
20260509143324 15 63 1.6 6.4 0.00 0.00 0.00 81 1013.2
20260509142826 15 121 3.2 8.0 0.00 0.00 0.00 80 1013.4
20260509142336 15 81 4.8 8.0 0.00 0.00 0.00 81 1013.6
20260509141815 15 92 1.6 6.4 0.00 0.00 0.00 81 1013.7
20260509141319 15 103 4.8 8.0 0.00 0.00 0.00 81 1013.7
20260509140827 15 98 1.6 6.4 0.00 0.00 0.00 81 1013.7
20260509140329 15 108 3.2 6.4 0.00 0.00 0.00 81 1013.6
20260509135838 15 103 1.6 6.4 0.00 0.00 0.00 82 1013.5
20260509135321 15 94 3.2 12.9 0.00 0.00 0.00 83 1013.6
20260509134824 15 134 8.0 12.9 0.00 0.00 0.00 84 1013.7
20260509134333 15 145 4.8 8.0 0.00 0.00 0.00 84 1013.7
20260509133903 -17 0.0 0.0 0.00 0.00 0.00 1013.7
20260509133331 -17 0.0 0.0 0.00 0.00 0.00 1013.4
20260509132841 -17 0.0 0.0 0.00 0.00 0.00 1013.3
20260509132322 -17 0.0 0.0 0.00 0.00 0.00 1013.4
20260509131407 -17 0.0 0.0 0.00 0.00 0.00 1013.5
20260509130834 -17 0.0 0.0 0.00 0.00 0.00 1013.5
20260509130315 -17 0.0 0.0 0.00 0.00 0.00 1013.7
20260509125824 -17 0.0 0.0 0.00 0.00 0.00 1013.7
20260509125354 -17 0.0 0.0 0.00 0.00 0.00 1013.9
20260509124821 -17 0.0 0.0 0.00 0.00 0.00 1013.9
20260509124330 -17 0.0 0.0 0.00 0.00 0.00 1013.8
20260509123832 -17 0.0 0.0 0.00 0.00 0.00 1013.9
20260509123314 -17 0.0 0.0 0.00 0.00 0.00 1014.0
20260509122903 -17 0.0 0.0 0.00 0.00 0.00 1014.2
20260509122358 -17 0.0 0.0 0.00 0.00 0.00 1014.1
20260509121832 -17 0.0 0.0 0.00 0.00 0.00 1014.2
20260509121331 -17 0.0 0.0 0.00 0.00 0.00 1014.2
20260509120840 -17 0.0 0.0 0.00 0.00 0.00 1014.3
20260509120321 -17 0.0 0.0 0.00 0.00 0.00 1014.5
20260509115851 -17 0.0 0.0 0.00 0.00 0.00 1014.6
20260509115318 -17 0.0 0.0 0.00 0.00 0.00 1014.5
20260509114824 -17 0.0 0.0 0.00 0.00 0.00 1014.5
20260509114325 -17 0.0 0.0 0.00 0.00 0.00 1014.4
20260509113855 -17 0.0 0.0 0.00 0.00 0.00 1014.4
20260509113322 -17 0.0 0.0 0.00 0.00 0.00 1014.5
20260509112831 -17 0.0 0.0 0.00 0.00 0.00 1014.6
20260509112333 -17 0.0 0.0 0.00 0.00 0.00 1014.5
20260509111815 -17 0.0 0.0 0.00 0.00 0.00 1014.6
20260509111411 -17 0.0 0.0 0.00 0.00 0.00 1014.6
20260509110855 -17 0.0 0.0 0.00 0.00 0.00 1014.5
20260509110329 -17 0.0 0.0 0.00 0.00 0.00 1014.6
20260509105816 -17 0.0 0.0 0.00 0.00 0.00 1014.7
20260509105317 -17 0.0 0.0 0.00 0.00 0.00 1014.7
20260509104910 -17 0.0 0.0 0.00 0.00 0.00 1014.7
20260509104358 -17 0.0 0.0 0.00 0.00 0.00 1014.7
20260509103832 -17 0.0 0.0 0.00 0.00 0.00 1014.9
20260509103315 -17 0.0 0.0 0.00 0.00 0.00 1015.0
20260509102838 -17 0.0 0.0 0.00 0.00 0.00 1015.0
20260509101902 -17 0.0 0.0 0.00 0.00 0.00 1014.9
20260509101329 -17 0.0 0.0 0.00 0.00 0.00 1014.9
20260509100838 -17 0.0 0.0 0.00 0.00 0.00 1014.8
20260509100320 -17 0.0 0.0 0.00 0.00 0.00 1014.8
20260509095908 -17 0.0 0.0 0.00 0.00 0.00 1014.8
20260509095403 -17 0.0 0.0 0.00 0.00 0.00 1014.8
20260509094830 -17 0.0 0.0 0.00 0.00 0.00 1014.7
20260509094339 -17 0.0 0.0 0.00 0.00 0.00 1014.5
20260509093822 -17 0.0 0.0 0.00 0.00 0.00 1014.5
20260509092904 -17 0.0 0.0 0.00 0.00 0.00 1014.5
20260509092338 -17 0.0 0.0 0.00 0.00 0.00 1014.5
20260509091819 -17 0.0 0.0 0.00 0.00 0.00 1014.6
20260509091322 -17 0.0 0.0 0.00 0.00 0.00 1014.6
20260509090851 -17 0.0 0.0 0.00 0.00 0.00 1014.6
20260509090405 -17 0.0 0.0 0.00 0.00 0.00 1014.6
20260509085839 -17 0.0 0.0 0.00 0.00 0.00 1014.6
20260509085321 -17 0.0 0.0 0.00 0.00 0.00 1014.6
20260509084819 -17 0.0 0.0 0.00 0.00 0.00 1014.6
20260509084349 -17 0.0 0.0 0.00 0.00 0.00 1014.5
20260509083859 -17 0.0 0.0 0.00 0.00 0.00 1014.5
20260509083333 -17 0.0 0.0 0.00 0.00 0.00 1014.5
20260509082833 -17 0.0 0.0 0.00 0.00 0.00 1014.7
20260509082315 -17 0.0 0.0 0.00 0.00 0.00 1014.7
20260509081904 -17 0.0 0.0 0.00 0.00 0.00 1014.9
20260509081359 -17 0.0 0.0 0.00 0.00 0.00 1014.9
20260509080833 -17 0.0 0.0 0.00 0.00 0.00 1014.9
20260509080315 -17 0.0 0.0 0.00 0.00 0.00 1014.9
20260509075816 -17 0.0 0.0 0.00 0.00 0.00 1014.9
20260509075412 -17 0.0 0.0 0.00 0.00 0.00 1014.9
20260509074859 -17 0.0 0.0 0.00 0.00 0.00 1014.8
20260509074333 -17 0.0 0.0 0.00 0.00 0.00 1014.8
20260509073833 -17 0.0 0.0 0.00 0.00 0.00 1014.9
20260509073314 -17 0.0 0.0 0.00 0.00 0.00 1014.9
20260509072911 -17 0.0 0.0 0.00 0.00 0.00 1015.0
20260509072359 -17 0.0 0.0 0.00 0.00 0.00 1015.1
20260509071833 -17 0.0 0.0 0.00 0.00 0.00 1015.1
20260509071315 -17 0.0 0.0 0.00 0.00 0.00 1015.1
20260509070815 -17 0.0 0.0 0.00 0.00 0.00 1015.1
20260509070412 -17 0.0 0.0 0.00 0.00 0.00 1015.1
20260509065906 -17 0.0 0.0 0.00 0.00 0.00 1015.1
20260509065314 -17 0.0 0.0 0.00 0.00 0.00 1015.2
20260509064815 -17 0.0 0.0 0.00 0.00 0.00 1015.1
20260509064325 -17 0.0 0.0 0.00 0.00 0.00 1015.1